Temp
-12 -12 -12 -12 -12 -13 -13 -13 -13 -13 -13 -13 -13 -13 -12 -12 -12 -12 -12 -12 -12 -11 -12 -11 -11 -11 -11 -11 -11 -11 -11 -11 -11 -11 -11 -11 -11 -11 -12 -12 -13 -13 -13 -13 -13 -13 -13
-12 -12 -12 -13 -13 -13 -13 -13 -13 -13 -13 -13 -13 -13 -13 -13 -12 -12 -12 -12 -12 -12 -12 -11 -11 -11 -11 -11 -11 -11 -11 -11 -11 -11 -11 -11 -11 -12 -13 -13 -13 -13 -13 -14 -13 -14 -14
-13 -13 -13 -13 -13 -13 -14 -14 -14 -14 -13 -13 -13 -13 -13 -13 -13 -13 -12 -12 -12 -12 -12 -12 -12 -11 -11 -11 -11 -12 -12 -11 -11 -11 -11 -11 -12 -12 -13 -13 -13 -13 -14 -14 -14 -14 -14
-13 -13 -13 -13 -14 -14 -14 -14 -14 -14 -14 -14 -13 -13 -13 -13 -13 -13 -13 -12 -12 -12 -12 -12 -12 -12 -12 -12 -12 -12 -12 -12 -12 -11 -11 -12 -12 -13 -13 -13 -13 -13 -14 -13 -14 -14 -14
-14 -14 -14 -14 -14 -14 -14 -14 -14 -14 -14 -14 -14 -14 -13 -13 -13 -13 -13 -13 -12 -12 -12 -12 -12 -12 -12 -12 -12 -12 -12 -12 -12 -12 -12 -12 -12 -13 -13 -13 -13 -13 -13 -13 -14 -14 -14
-15 -15 -15 -15 -15 -15 -15 -15 -15 -15 -14 -14 -14 -14 -14 -14 -13 -13 -13 -13 -12 -12 -12 -12 -12 -12 -12 -12 -12 -12 -12 -12 -12 -12 -12 -12 -12 -13 -13 -13 -13 -13 -13 -14 -13 -14 -13
-15 -16 -16 -16 -16 -15 -15 -15 -15 -15 -15 -15 -14 -14 -14 -14 -14 -13 -13 -13 -13 -13 -12 -13 -12 -12 -12 -12 -12 -12 -12 -12 -12 -12 -12 -12 -12 -13 -13 -13 -13 -13 -13 -13 -13 -14 -13
-16 -16 -16 -16 -16 -16 -16 -16 -16 -15 -15 -15 -15 -14 -14 -14 -14 -14 -13 -13 -13 -13 -13 -13 -13 -12 -12 -12 -12 -12 -12 -13 -13 -13 -13 -13 -13 -13 -13 -13 -13 -13 -13 -14 -13 -14 -14
-16 -16 -16 -16 -16 -16 -16 -17 -16 -16 -16 -15 -15 -15 -14 -14 -14 -14 -14 -13 -13 -13 -13 -13 -13 -13 -13 -12 -12 -13 -13 -13 -13 -13 -13 -13 -13 -13 -13 -14 -14 -14 -13 -14 -14 -14 -14
-16 -16 -16 -16 -16 -16 -16 -16 -16 -16 -16 -15 -15 -15 -15 -15 -14 -14 -14 -14 -14 -14 -13 -13 -13 -13 -13 -13 -13 -13 -13 -13 -13 -13 -13 -13 -13 -13 -14 -14 -14 -14 -14 -14 -14 -14 -14
-16 -17 -16 -17 -16 -16 -16 -16 -17 -16 -16 -16 -15 -15 -15 -15 -14 -14 -14 -14 -14 -14 -13 -13 -13 -13 -13 -13 -13 -13 -13 -13 -13 -14 -13 -13 -14 -14 -14 -14 -14 -14 -14 -14 -14 -14 -14
-17 -17 -17 -16 -16 -16 -16 -16 -17 -16 -16 -16 -16 -15 -15 -15 -15 -15 -15 -15 -14 -14 -14 -14 -14 -14 -14 -14 -14 -14 -14 -14 -14 -14 -14 -14 -14 -14 -14 -14 -14 -15 -15 -15 -15 -14 -14
-17 -17 -17 -16 -16 -16 -16 -17 -17 -16 -16 -16 -16 -15 -15 -15 -15 -15 -15 -15 -15 -15 -15 -14 -14 -14 -14 -14 -14 -14 -14 -14 -14 -14 -14 -14 -14 -14 -15 -15 -15 -15 -15 -15 -15 -15 -15
-18 -17 -17 -17 -16 -16 -17 -18 -17 -16 -16 -16 -16 -16 -16 -15 -15 -15 -15 -15 -15 -15 -15 -15 -15 -15 -15 -15 -15 -15 -15 -15 -15 -15 -15 -14 -14 -15 -15 -15 -15 -15 -15 -16 -15 -15 -15
-18 -17 -17 -16 -16 -16 -18 -17 -17 -16 -16 -16 -16 -16 -16 -16 -16 -16 -16 -16 -15 -16 -16 -16 -15 -15 -15 -15 -15 -15 -15 -15 -15 -15 -15 -15 -15 -15 -15 -15 -15 -15 -16 -16 -16 -16 -15
-17 -17 -17 -16 -16 -17 -18 -17 -17 -17 -16 -16 -16 -16 -16 -16 -16 -16 -16 -16 -16 -16 -16 -15 -15 -15 -15 -15 -15 -15 -15 -15 -15 -15 -15 -15 -15 -15 -15 -16 -16 -16 -16 -16 -16 -16 -16
-17 -17 -16 -16 -17 -18 -18 -17 -17 -17 -17 -16 -16 -16 -16 -16 -16 -16 -16 -16 -16 -16 -16 -16 -15 -15 -15 -15 -15 -15 -15 -15 -16 -16 -16 -16 -16 -15 -16 -16 -16 -16 -16 -17 -17 -17 -17
-16 -17 -16 -17 -17 -18 -18 -18 -17 -17 -17 -17 -17 -16 -17 -16 -16 -16 -16 -16 -16 -16 -16 -16 -16 -16 -16 -16 -16 -16 -16 -16 -16 -16 -16 -16 -16 -16 -16 -16 -17 -17 -17 -17 -18 -17 -18
-16 -16 -17 -17 -18 -18 -18 -18 -18 -18 -17 -17 -17 -17 -17 -17 -16 -17 -17 -16 -16 -16 -16 -16 -16 -16 -16 -16 -16 -16 -16 -16 -16 -16 -16 -16 -16 -16 -16 -17 -17 -16 -17 -17 -18 -17 -17
-17 -17 -17 -18 -18 -18 -18 -18 -18 -18 -18 -17 -17 -17 -17 -16 -17 -17 -16 -16 -16 -16 -16 -16 -16 -16 -16 -16 -16 -16 -16 -16 -16 -17 -17 -17 -17 -17 -17 -17 -17 -17 -17 -18 -18 -18 -18
-17 -18 -18 -18 -18 -18 -18 -18 -18 -17 -17 -17 -17 -17 -17 -16 -17 -16 -16 -16 -16 -16 -16 -16 -16 -16 -16 -16 -17 -17 -17 -17 -17 -17 -17 -17 -17 -17 -18 -18 -18 -17 -18 -18 -19 -19 -19
-18 -18 -18 -18 -17 -17 -17 -17 -17 -17 -17 -17 -17 -17 -17 -17 -16 -16 -16 -16 -16 -16 -16 -16 -17 -17 -17 -17 -17 -17 -17 -17 -17 -18 -18 -18 -18 -18 -18 -19 -19 -18 -18 -19 -19 -20 -20
-18 -18 -18 -18 -18 -18 -17 -17 -17 -17 -17 -17 -17 -17 -17 -17 -16 -16 -17 -17 -17 -17 -17 -17 -17 -17 -18 -18 -18 -18 -18 -18 -18 -19 -19 -19 -19 -20 -19 -20 -20 -19 -20 -20 -20 -20 -20
-17 -17 -18 -18 -17 -17 -17 -17 -17 -17 -17 -17 -17 -17 -17 -17 -17 -17 -17 -17 -17 -18 -18 -18 -18 -18 -18 -19 -19 -19 -19 -19 -20 -20 -20 -20 -21 -21 -20 -21 -20 -20 -20 -20 -21 -21 -21
-18 -18 -18 -18 -18 -18 -17 -17 -18 -18 -17 -17 -17 -17 -18 -18 -18 -18 -18 -18 -18 -19 -19 -19 -19 -19 -19 -20 -20 -20 -20 -20 -20 -20 -21 -21 -21 -21 -21 -21 -21 -21 -21 -21 -22 -22 -22
-19 -19 -18 -18 -18 -18 -18 -18 -18 -18 -18 -18 -18 -19 -19 -19 -19 -19 -19 -19 -19 -19 -20 -20 -20 -20 -20 -20 -20 -20 -21 -21 -21 -21 -21 -22 -22 -22 -22 -23 -22 -22 -22 -23 -23 -22 -23
-19 -19 -19 -18 -18 -18 -18 -19 -19 -19 -19 -20 -20 -20 -20 -20 -20 -20 -20 -20 -20 -20 -20 -20 -20 -20 -21 -21 -21 -21 -21 -21 -21 -22 -22 -22 -22 -23 -23 -24 -23 -23 -23 -24 -24 -24 -24
-19 -19 -18 -18 -19 -19 -19 -19 -20 -21 -21 -21 -21 -21 -20 -20 -20 -21 -21 -21 -21 -21 -21 -21 -21 -21 -21 -22 -22 -22 -22 -22 -22 -22 -22 -23 -23 -23 -24 -24 -24 -25 -25 -26 -26 -26 -27
-19 -19 -19 -19 -20 -21 -22 -22 -23 -22 -22 -21 -21 -21 -21 -21 -21 -21 -21 -21 -21 -21 -21 -21 -22 -22 -22 -22 -22 -22 -23 -22 -23 -23 -23 -24 -24 -25 -25 -26 -26 -26 -27 -28 -28 -29 -29
Height
5773 5772 5771 5770 5768 5768 5769 5769 5771 5772 5773 5775 5777 5778 5780 5782 5782 5783 5783 5784 5784 5784 5783 5782 5781 5781 5780 5781 5780 5780 5779 5778 5780 5779 5779 5778 5777 5775 5773 5772 5772 5772 5771 5771 5771 5771 5771
5767 5767 5766 5766 5766 5765 5765 5766 5767 5769 5770 5771 5773 5775 5776 5777 5779 5780 5779 5780 5780 5780 5779 5778 5777 5777 5776 5777 5776 5776 5775 5776 5776 5776 5776 5775 5773 5772 5770 5770 5770 5770 5769 5769 5769 5769 5769
5761 5761 5761 5760 5760 5761 5761 5762 5763 5765 5766 5767 5769 5770 5772 5773 5775 5775 5776 5776 5776 5775 5775 5773 5773 5772 5772 5773 5772 5772 5772 5772 5772 5773 5773 5772 5771 5769 5768 5769 5768 5768 5768 5768 5768 5768 5768
5752 5753 5753 5753 5754 5754 5755 5757 5759 5760 5762 5763 5764 5766 5768 5769 5771 5771 5772 5771 5771 5770 5769 5768 5768 5767 5767 5767 5768 5768 5768 5768 5769 5770 5769 5769 5767 5766 5766 5767 5766 5766 5766 5766 5765 5765 5766
5744 5744 5744 5745 5746 5747 5749 5751 5753 5755 5757 5759 5760 5762 5763 5765 5766 5766 5766 5766 5765 5765 5764 5763 5763 5763 5763 5763 5764 5763 5764 5764 5766 5765 5765 5765 5763 5764 5764 5764 5764 5763 5763 5763 5763 5763 5763
5734 5734 5736 5737 5739 5740 5742 5744 5747 5750 5752 5754 5755 5757 5758 5760 5760 5761 5761 5760 5760 5760 5759 5758 5758 5760 5759 5759 5759 5759 5760 5760 5761 5761 5762 5761 5760 5761 5761 5761 5761 5761 5760 5760 5759 5761 5760
5727 5727 5729 5731 5733 5735 5735 5738 5741 5743 5746 5749 5750 5751 5753 5754 5754 5755 5755 5755 5757 5756 5754 5754 5755 5754 5754 5755 5755 5755 5756 5756 5757 5757 5757 5756 5758 5758 5757 5758 5758 5757 5757 5757 5756 5757 5757
5720 5721 5724 5725 5727 5728 5729 5732 5735 5738 5740 5743 5744 5746 5747 5748 5749 5749 5749 5749 5749 5750 5750 5749 5750 5750 5751 5750 5751 5751 5752 5752 5752 5751 5752 5752 5753 5754 5754 5754 5753 5753 5753 5753 5752 5752 5752
5714 5715 5715 5718 5720 5722 5723 5725 5730 5732 5734 5737 5739 5740 5742 5743 5743 5744 5744 5744 5744 5744 5746 5746 5745 5746 5746 5747 5747 5746 5746 5747 5746 5746 5746 5747 5750 5748 5748 5749 5748 5748 5748 5747 5747 5747 5746
5707 5708 5708 5710 5713 5715 5717 5719 5723 5726 5729 5732 5734 5735 5736 5738 5739 5739 5739 5739 5739 5739 5741 5743 5741 5742 5742 5741 5742 5740 5740 5742 5741 5741 5741 5741 5744 5743 5742 5743 5743 5742 5743 5741 5740 5738 5738
5700 5701 5702 5703 5707 5709 5711 5712 5717 5721 5723 5726 5729 5730 5732 5733 5733 5734 5735 5734 5735 5735 5736 5738 5737 5737 5736 5737 5737 5736 5735 5735 5735 5735 5736 5737 5736 5736 5736 5737 5735 5736 5735 5734 5732 5730 5730
5692 5694 5696 5698 5699 5702 5704 5707 5711 5716 5718 5721 5724 5725 5726 5727 5728 5729 5729 5730 5730 5732 5731 5732 5732 5731 5732 5732 5731 5731 5731 5730 5730 5730 5729 5730 5730 5730 5730 5729 5728 5728 5727 5726 5724 5722 5720
5685 5687 5689 5692 5694 5696 5698 5701 5706 5710 5713 5716 5718 5719 5721 5722 5723 5724 5724 5725 5726 5726 5727 5727 5726 5726 5726 5725 5725 5725 5725 5724 5724 5724 5724 5723 5723 5722 5723 5722 5721 5720 5719 5717 5715 5715 5714
5680 5680 5683 5686 5689 5689 5692 5697 5702 5705 5708 5711 5712 5714 5715 5716 5717 5718 5719 5721 5720 5720 5720 5720 5720 5719 5720 5719 5719 5718 5718 5718 5717 5717 5716 5715 5717 5716 5716 5714 5713 5713 5712 5711 5706 5705 5705
5675 5676 5678 5681 5683 5684 5688 5693 5697 5700 5703 5705 5707 5709 5710 5711 5712 5713 5714 5714 5715 5715 5715 5714 5713 5712 5713 5713 5712 5711 5711 5711 5711 5710 5709 5707 5707 5708 5708 5707 5707 5705 5704 5702 5699 5698 5695
5671 5672 5674 5676 5677 5680 5685 5689 5693 5696 5698 5700 5702 5704 5705 5706 5707 5707 5708 5708 5708 5708 5707 5707 5707 5706 5705 5707 5704 5704 5703 5704 5703 5702 5701 5700 5697 5699 5699 5698 5697 5695 5694 5693 5691 5687 5685
5667 5668 5668 5670 5672 5676 5681 5685 5688 5691 5693 5695 5697 5699 5700 5700 5701 5702 5702 5702 5701 5701 5701 5701 5700 5699 5698 5698 5697 5696 5695 5696 5695 5694 5693 5691 5690 5690 5688 5688 5686 5685 5683 5682 5680 5678 5675
5660 5662 5664 5665 5668 5672 5677 5680 5683 5686 5688 5690 5692 5694 5694 5694 5696 5695 5696 5695 5695 5694 5694 5693 5692 5692 5691 5690 5689 5688 5688 5686 5686 5685 5684 5682 5680 5679 5678 5676 5674 5672 5671 5670 5668 5667 5664
5654 5657 5660 5662 5666 5669 5672 5676 5679 5681 5683 5685 5687 5688 5689 5688 5688 5689 5688 5688 5687 5687 5686 5685 5684 5683 5683 5682 5681 5680 5679 5678 5676 5674 5672 5671 5669 5668 5666 5666 5663 5661 5660 5658 5655 5653 5652
5651 5655 5657 5660 5663 5667 5671 5673 5675 5676 5678 5680 5681 5681 5682 5681 5681 5682 5682 5681 5680 5680 5679 5677 5676 5675 5674 5673 5672 5669 5669 5668 5666 5664 5662 5659 5659 5657 5656 5654 5652 5651 5649 5645 5642 5640 5639
5649 5652 5656 5660 5662 5665 5667 5668 5671 5672 5672 5674 5675 5676 5675 5675 5676 5676 5675 5675 5673 5672 5671 5670 5669 5668 5666 5664 5663 5662 5659 5658 5656 5654 5652 5650 5649 5647 5645 5643 5640 5639 5637 5634 5630 5628 5621
5648 5652 5654 5658 5660 5662 5664 5665 5666 5667 5667 5668 5669 5670 5670 5671 5670 5669 5668 5667 5666 5665 5664 5663 5661 5659 5658 5656 5655 5653 5651 5649 5648 5646 5642 5639 5636 5634 5634 5630 5628 5626 5624 5621 5618 5615 5609
5645 5649 5652 5655 5657 5659 5659 5661 5662 5663 5664 5664 5665 5665 5665 5664 5663 5662 5662 5660 5659 5658 5657 5655 5653 5651 5649 5647 5645 5643 5641 5639 5637 5635 5632 5629 5625 5621 5619 5617 5614 5614 5613 5607 5604 5599 5595
5645 5648 5651 5652 5653 5654 5656 5657 5658 5659 5659 5660 5660 5659 5659 5657 5656 5656 5654 5653 5652 5650 5648 5646 5644 5642 5641 5638 5636 5634 5632 5630 5627 5624 5620 5616 5612 5607 5605 5600 5597 5597 5593 5589 5584 5583 5578
5644 5646 5647 5648 5649 5651 5652 5653 5654 5654 5654 5654 5654 5653 5652 5651 5650 5648 5647 5645 5643 5642 5640 5638 5636 5634 5631 5629 5627 5624 5622 5621 5618 5614 5610 5605 5599 5593 5588 5584 5583 5581 5576 5571 5565 5566 5558
5642 5643 5644 5645 5646 5648 5648 5649 5649 5649 5648 5647 5646 5645 5645 5644 5643 5641 5640 5638 5636 5634 5632 5630 5627 5625 5623 5620 5617 5613 5610 5606 5601 5598 5595 5590 5584 5579 5573 5565 5562 5561 5555 5550 5545 5543 5539
5639 5640 5640 5641 5642 5643 5643 5644 5643 5643 5642 5642 5641 5640 5639 5639 5637 5635 5633 5631 5629 5626 5625 5622 5619 5617 5613 5609 5605 5602 5599 5595 5590 5585 5582 5575 5568 5561 5554 5542 5543 5540 5535 5529 5524 5525 5517
5635 5636 5637 5638 5638 5638 5638 5638 5638 5638 5638 5637 5636 5634 5634 5631 5630 5628 5626 5624 5620 5617 5615 5612 5610 5606 5601 5597 5593 5589 5584 5580 5575 5570 5564 5558 5549 5545 5535 5527 5520 5520 5511 5509 5505 5497 5495
5632 5632 5633 5633 5634 5634 5634 5634 5634 5634 5633 5632 5630 5629 5627 5625 5623 5620 5617 5615 5612 5608 5604 5600 5596 5591 5586 5582 5577 5571 5566 5561 5556 5553 5546 5539 5534 5529 5521 5513 5499 5496 5488 5485 5483 5481 5476
Wind_Speed
27 26 24 20 18 18 19 19 19 20 19 19 19 19 21 22 20 19 18 18 19 20 20 20 21 21 19 18 17 15 14 13 13 12 12 12 13 12 10 10 10 9 10 10 11 12 14
28 29 26 24 21 21 21 22 21 23 21 20 19 19 20 20 21 21 20 20 21 21 22 22 22 21 19 18 18 16 15 14 13 12 12 12 12 10 8 7 7 7 7 7 7 6 7
33 28 29 26 25 23 23 23 23 23 24 22 20 20 20 21 22 21 21 22 23 23 23 23 21 20 18 19 18 17 16 15 14 13 12 12 11 9 8 8 7 7 7 7 7 8 8
36 33 29 29 27 25 25 25 25 23 23 22 21 21 21 22 23 22 24 24 24 24 24 22 20 20 17 18 18 18 17 16 15 14 13 12 10 9 9 9 9 9 9 9 11 10 11
34 32 29 31 29 28 27 26 27 25 25 23 22 22 22 23 23 24 25 26 26 25 24 22 20 19 18 19 19 17 17 16 17 15 14 13 10 10 11 11 10 12 11 10 10 12 12
30 30 31 31 31 30 29 27 27 26 25 24 23 23 23 23 24 25 26 27 26 24 22 21 19 18 18 19 18 17 17 17 17 17 16 14 12 12 13 12 12 11 9 12 12 9 12
29 30 31 28 31 31 30 30 28 27 26 26 24 24 24 24 25 27 27 27 25 22 22 20 19 17 17 17 17 19 19 17 18 18 18 17 15 15 16 15 15 14 14 14 16 12 15
27 28 29 31 32 24 29 31 29 28 26 28 26 25 25 26 26 26 26 25 23 21 21 20 19 18 17 17 17 18 20 19 19 18 19 20 18 19 18 19 19 19 18 19 20 20 23
27 29 30 27 30 29 25 32 29 28 26 28 28 27 26 27 27 26 25 24 23 21 20 20 19 19 18 19 17 19 19 20 20 20 21 22 20 22 23 22 23 24 23 24 26 26 28
26 31 29 34 28 27 24 29 30 28 28 28 29 27 26 26 25 24 23 23 22 21 20 18 20 19 19 19 19 20 21 22 21 22 23 25 22 25 26 26 26 27 26 28 31 32 34
30 35 36 31 26 27 26 30 31 28 28 28 28 27 25 24 24 23 22 21 21 20 19 16 16 17 18 18 18 18 20 20 21 22 25 24 25 26 28 27 29 29 30 31 33 36 38
30 31 34 31 23 25 27 31 30 27 26 27 27 25 23 23 22 22 21 20 20 20 19 18 19 19 21 22 23 22 22 22 24 24 26 26 27 27 27 29 30 30 31 33 35 37 40
26 27 30 32 29 27 27 29 26 26 25 26 24 23 22 21 21 21 20 21 21 20 20 20 20 21 20 21 22 23 23 24 25 25 25 27 26 28 28 29 30 31 32 35 39 38 40
25 25 26 26 28 26 28 24 25 25 24 24 22 22 21 21 21 21 22 23 22 22 22 23 23 23 23 24 25 26 27 27 27 27 28 30 28 28 29 31 32 32 33 34 40 40 42
22 23 25 25 25 27 25 23 23 24 24 22 22 22 21 21 22 22 23 23 23 24 25 26 26 27 26 27 28 29 29 30 28 30 32 33 34 33 33 34 34 35 36 38 41 43 45
17 20 24 25 24 24 22 23 21 22 21 21 21 21 22 22 23 23 24 24 25 26 27 27 27 28 28 26 30 30 30 31 31 31 33 35 39 37 36 37 37 38 41 41 41 44 47
19 21 27 27 24 27 24 23 22 21 20 21 21 21 22 24 24 25 25 26 27 28 29 29 29 30 29 30 30 31 33 32 32 32 34 36 38 40 40 40 40 41 42 43 44 46 47
26 26 26 24 29 31 24 22 22 21 24 23 21 21 22 24 25 25 27 28 29 30 30 29 30 31 31 31 32 32 32 33 35 37 39 39 42 43 42 42 42 44 44 44 44 47 48
21 23 23 25 23 26 28 27 22 19 19 20 20 21 23 26 29 28 28 29 29 29 30 30 30 30 31 33 34 34 36 37 38 38 40 40 40 40 41 42 43 44 45 45 47 48 48
19 22 23 24 26 25 24 23 30 32 29 27 27 26 30 26 24 22 21 22 24 24 25 27 29 29 30 31 32 34 34 34 34 34 35 37 37 38 39 41 44 44 45 46 48 51 48
21 20 24 23 20 19 19 21 23 22 21 23 25 23 21 18 18 21 23 25 26 27 28 29 29 30 29 29 30 30 32 32 33 34 35 38 39 39 39 40 43 45 47 46 48 48 53
22 20 19 18 22 19 20 19 19 19 17 15 15 16 18 21 23 25 26 26 27 27 27 26 26 26 27 28 30 30 32 34 35 35 37 38 41 42 43 44 45 48 49 49 50 51 54
15 23 24 21 18 16 15 14 12 12 13 16 17 19 19 21 22 23 23 22 22 23 24 24 26 27 28 30 31 33 34 35 37 38 40 42 44 47 49 49 51 53 51 54 55 57 58
8 13 13 12 12 12 11 11 12 13 14 16 18 20 21 21 20 21 21 21 22 24 25 26 27 29 31 32 34 35 37 39 40 43 46 47 48 51 53 56 58 59 59 59 60 59 60
6 8 8 9 10 12 13 14 14 16 18 20 21 20 20 20 20 20 22 23 24 25 27 29 31 32 34 36 39 41 43 45 45 46 46 48 50 52 55 57 58 58 58 60 62 60 63
13 14 13 13 14 16 17 16 17 18 19 18 19 18 19 20 20 20 23 25 26 28 29 31 33 35 37 39 39 42 43 45 48 49 48 49 51 53 57 59 61 61 62 65 67 68 66
18 17 16 17 20 19 18 17 15 16 17 17 18 18 19 20 22 23 25 27 29 30 31 32 33 35 35 37 38 40 43 45 47 48 50 52 54 57 59 64 66 67 68 69 69 69 70
17 17 17 17 15 15 17 18 16 14 14 17 19 21 22 24 25 25 27 28 31 31 32 35 37 37 39 42 45 47 50 50 53 54 55 57 60 61 65 68 71 69 72 71 70 71 71
16 17 17 18 16 14 10 11 12 17 20 21 22 24 26 26 27 29 32 35 36 36 40 42 43 45 48 52 54 56 56 59 58 60 60 63 65 66 67 68 72 72 72 70 70 67 64
Wind_Direction
295 291 288 281 277 261 248 238 236 237 230 231 233 226 230 231 240 245 252 262 268 274 279 280 280 280 279 277 276 276 269 268 278 280 288 298 299 303 305 302 300 295 294 289 281 274 265
293 288 282 277 270 262 249 241 233 237 235 233 233 233 234 238 242 249 257 265 273 276 281 283 280 277 275 272 270 270 267 265 271 273 283 293 297 299 302 302 305 309 311 311 301 290 284
293 286 279 272 264 259 249 241 236 233 238 233 235 236 238 243 249 256 262 267 274 279 282 282 281 278 275 267 267 272 265 262 266 266 275 289 289 291 294 290 294 298 294 291 287 283 272
286 281 271 267 259 249 247 242 238 235 235 236 234 236 242 245 252 260 266 273 277 283 284 281 278 275 275 267 264 270 260 261 262 263 269 278 280 277 277 280 281 284 288 285 278 276 275
281 273 260 259 254 246 241 238 238 234 236 234 235 237 242 249 256 263 272 278 283 285 282 279 275 274 272 266 263 265 256 259 260 258 260 269 272 270 273 275 276 280 287 283 284 286 281
268 259 251 248 247 243 240 236 235 235 236 234 235 240 246 253 259 266 273 279 283 282 281 277 273 274 269 269 265 259 256 256 259 257 258 262 266 265 265 271 273 285 273 290 295 289 292
263 254 249 249 251 248 239 236 234 235 237 238 237 243 248 256 263 269 277 279 278 279 278 273 269 271 272 268 262 258 254 255 258 258 256 260 262 261 265 267 270 272 281 285 286 289 289
256 251 250 246 246 241 242 234 231 232 235 241 241 244 251 259 266 272 276 277 276 275 273 269 266 267 268 266 261 257 253 255 258 259 260 257 259 264 261 266 267 271 274 278 281 285 285
249 249 248 253 249 250 258 234 236 234 237 242 244 248 254 261 267 271 272 272 270 270 267 266 264 263 267 267 263 260 258 257 259 261 259 260 258 262 263 266 268 271 275 278 279 279 280
250 243 250 245 244 242 241 235 230 235 239 244 247 251 256 261 264 266 266 267 268 268 266 257 262 265 267 267 265 262 262 261 260 261 263 262 264 262 262 264 269 270 275 276 280 280 281
260 249 253 258 242 241 240 236 227 236 238 245 248 251 255 258 261 261 261 262 264 266 269 261 262 266 270 268 267 267 266 265 263 262 262 265 263 262 264 268 267 273 273 275 276 278 282
255 250 249 248 250 242 240 232 223 235 239 244 247 251 253 255 256 255 258 261 262 265 269 269 271 270 269 271 271 268 268 267 266 265 265 266 265 266 266 266 269 272 273 273 275 278 279
253 249 247 245 251 252 243 222 223 234 238 243 247 251 251 252 254 255 258 259 261 265 273 272 273 272 272 271 269 267 266 267 269 269 268 269 267 267 268 268 268 269 273 276 276 278 280
256 245 241 245 247 253 226 214 226 233 237 239 245 249 251 253 255 257 258 260 263 267 268 271 273 273 272 271 269 270 269 269 270 270 270 269 265 269 270 271 272 273 275 277 280 283 285
251 237 238 245 253 242 210 221 228 233 235 238 243 249 253 255 256 257 260 264 267 268 271 273 274 274 273 273 272 271 272 272 271 271 273 274 273 272 272 274 275 276 276 276 278 279 282
245 247 247 257 251 223 212 221 229 233 237 241 245 250 254 256 258 261 265 268 271 272 275 275 276 277 278 272 273 274 273 274 274 273 275 277 279 279 279 278 278 277 278 278 278 279 280
246 249 250 253 230 207 217 223 228 236 239 245 248 252 257 262 263 265 268 269 272 274 277 279 280 280 279 280 279 279 279 278 276 276 275 277 278 281 280 281 280 279 277 277 277 278 281
249 252 249 231 210 206 211 221 227 230 239 250 252 255 259 263 265 268 270 271 273 275 277 279 280 279 279 279 279 279 280 280 280 280 281 282 283 282 280 280 280 281 281 280 280 281 279
230 229 235 224 218 217 217 221 226 234 239 248 254 259 263 264 267 273 275 275 277 276 276 279 280 280 277 277 278 279 280 282 282 283 283 283 282 283 284 284 284 284 285 285 283 282 282
227 226 222 226 229 217 228 242 241 237 238 244 249 254 267 272 271 272 277 279 280 279 278 279 280 280 280 279 281 281 282 281 282 282 282 282 283 284 285 286 285 285 287 288 287 287 289
221 220 217 225 238 245 249 248 250 248 246 255 262 267 267 268 269 275 277 278 279 278 278 279 280 280 281 281 280 282 283 283 284 284 284 284 284 285 286 287 287 287 287 288 290 290 288
209 199 201 218 224 230 245 249 257 258 261 257 264 265 267 270 273 281 282 280 280 280 280 279 280 282 283 283 283 285 285 287 289 290 292 293 292 292 291 292 292 289 290 291 290 289 288
227 218 217 223 231 245 252 250 250 259 261 263 265 268 270 273 276 279 279 280 280 279 281 283 284 284 286 288 289 291 293 294 293 295 294 294 294 293 291 291 288 287 289 287 287 287 288
224 219 225 233 250 245 240 248 253 260 262 265 267 269 274 274 273 274 276 279 280 282 284 286 288 290 291 293 293 294 295 294 294 294 294 295 294 293 293 292 290 292 291 291 290 290 289
262 255 278 293 257 238 247 255 259 268 274 275 275 274 274 275 278 282 286 289 290 293 296 295 296 296 297 297 296 295 294 293 292 293 295 297 297 296 296 296 296 295 294 292 290 291 290
264 264 270 258 243 247 253 261 271 275 276 277 278 279 283 285 290 293 294 296 296 296 298 298 298 298 297 296 296 298 299 300 301 302 303 303 301 299 298 294 296 297 295 292 291 290 290
252 259 252 242 241 249 264 270 275 277 277 279 283 288 294 295 295 295 294 295 295 297 298 298 299 299 302 303 303 302 303 303 304 304 304 302 298 296 295 292 294 294 290 288 287 289 287
243 245 243 251 258 257 254 264 271 275 282 285 289 292 292 292 294 295 296 299 304 303 304 305 304 305 305 308 309 310 308 308 307 305 303 300 296 296 293 291 291 291 289 288 288 287 287
238 240 242 249 258 265 255 259 269 280 286 289 290 292 292 293 297 300 302 304 305 306 309 310 310 309 311 312 311 310 309 308 306 305 301 297 294 292 291 292 290 290 289 288 288 288 286